Regional Weather Roundup
Issued by NWS

Home | Current Version | Previous Version | Text Only | Print | Product List | Glossary Off
Versions: 1 2 3 4 5 6 7 8 9 10 11 12 13 14 15 16 17 18 19 20 21 22 23 24 25 26 27 28 29 30 31 32 33 34 35 36 37 38 39 40 41 42 43 44 45 46 47 48 49 50

000
ASUS43 KDTX 020501
RWRMI
MICHIGAN HOURLY REGIONAL WEATHER ROUNDUP
NATIONAL WEATHER SERVICE DETROIT/PONTIAC MI
100 AM EDT THU APR 02 2015

NOTE: "FAIR" INDICATES FEW OR NO CLOUDS BELOW 12,000 FEET WITH NO
SIGNIFICANT WEATHER AND/OR OBSTRUCTION TO VISIBILITY.

MIZ047>049-052>055-059>063-066>070-074>076-081>083-020600-
SOUTHEAST LOWER MICHIGAN

CITY           SKY/WX    TMP DP  RH WIND       PRES   REMARKS
ADRIAN         CLEAR     50  34  54 SW10      29.96F
ALMA           CLEAR     52  37  55 S8        29.87F
ANN ARBOR      CLEAR     35  33  92 CALM      29.96F
BAD AXE        MOCLDY    44  37  75 S13       29.93F
CARO           PTCLDY    46  37  68 S8        29.91F
DETROIT CITY   CLEAR     46  34  62 S7        29.98F
DETROIT        MOCLDY    42  35  76 SE7       29.97F
FLINT          CLEAR     53  35  50 S10G20    29.92F
GROSSE ILE     CLEAR     39  36  87 S7        29.97F WCI  34
HILLSDALE      CLEAR     53  33  47 S10       29.94F
HOWELL         CLEAR     49  35  57 S8G16     29.93F

CITY           SKY/WX    TMP DP  RH WIND       PRES   REMARKS
JACKSON        CLEAR     55  33  43 S12       29.93F
LAMBERTVILLE   CLEAR     55  32  41 S7        29.98F
LANSING        CLEAR     54  35  48 S14       29.91F
LAPEER         FAIR      43  35  74 S5        29.95S
MASON          CLEAR     50  35  55 S3        29.92F
MONROE         CLEAR     46  36  66 S8        29.96F
MT. CLEMENS    CLEAR     33  31  92 SE6       29.95F WCI  28
PONTIAC        CLEAR     44  34  67 S6        29.95F
PORT HOPE        N/A     43  36  76 S12       29.91F
PORT HURON     PTCLDY    34  32  93 S5        29.99F WCI  30
TRI CITIES     PTCLDY    49  37  63 S8        29.89F
TROY           CLEAR     42  34  72 CALM      29.99F
SAGINAW HB     CLEAR     48  36  61 S10       29.89F
$$
MIZ043>046-050>051-056>058-064>065-071>073-077>080-020600-
SOUTHWEST LOWER MICHIGAN

CITY           SKY/WX    TMP DP  RH WIND       PRES   REMARKS
BATTLE CREEK   CLEAR     54  35  48 S14       29.90F
BENTON HARBOR  CLEAR     57  34  41 S16G22    29.86F
BIG RAPIDS     CLEAR     55  35  47 S10       29.82F
COLDWATER      FAIR      54  32  43 S9        29.93F
FREMONT        FAIR      56  32  41 S8        29.82F
HOLLAND        PTCLDY    57  36  45 S15       29.85F
GRAND RAPIDS   CLEAR     56  35  45 S13       29.86F
IONIA          FAIR      55  37  50 S14       29.86F
KALAMAZOO      CLEAR     54  36  50 S14       29.90F
LUDINGTON      PTCLDY    61  34  36 S24G32    29.77F
MARSHALL       CLEAR     52  35  51 S7        29.91F
MOUNT PLEASANT CLEAR     50  37  59 SE5       29.86S
MUSKEGON       PTCLDY    61  33  35 S23G36    29.82F
SOUTH HAVEN    FAIR      59  33  37 S14G22    29.85F
$$
MIZ016>042-020600-
NORTHERN LOWER MICHIGAN

CITY           SKY/WX    TMP DP  RH WIND       PRES   REMARKS
ALPENA         CLOUDY    37  33  85 SE9       29.85F WCI  30
BEAVER ISLAND  MOCLDY    48  33  55 SE10G17   29.70F
BELLAIRE       PTCLDY    54  34  46 S5        29.75F
CADILLAC       CLEAR     52  35  52 S9        29.79S
CHARLEVOIX     MOCLDY    54  35  49 S14G22    29.75F
FRANKFORT      PTCLDY    64  30  27 S18G32    29.72F
GAYLORD        PTCLDY    44  32  62 S9        29.78F
GRAYLING       PTCLDY    44  31  60 CALM      29.81F
HARBOR SPRINGS MOCLDY    48  33  56 CALM      29.75F
HOUGHTON LAKE  CLEAR     45  32  60 S9        29.82F
MANISTEE       PTCLDY    63  36  36 S17G29    29.76F
OSCODA         CLOUDY    41  37  84 SE5       29.90F
PELLSTON       MOCLDY    44  32  62 SE7       29.76F
ROGERS CITY    CLOUDY    41  37  83 S13       29.81F
TRAVERSE CITY  CLEAR     59  35  40 S10G22    29.72F
$$
MIZ007>008-015-020600-
EASTERN UPPER MICHIGAN

CITY           SKY/WX    TMP DP  RH WIND       PRES   REMARKS
KINROSS        CLOUDY    34  34 100 SE18      29.76F WCI  23
MACKINAC ISLAN CLOUDY    37  32  84 E12G22    29.74F WCI  29
NEWBERRY       CLOUDY    37  33  87 SE12      29.68F WCI  29
S. S. MARIE    LGT RAIN  34  31  88 E12G21    29.78F WCI  25
$$
MIZ004>006-011>014-085-020600-
CENTRAL UPPER MICHIGAN

CITY           SKY/WX    TMP DP  RH WIND       PRES   REMARKS
MANISTIQUE     CLOUDY    40  33  76 SE9       29.68F WCI  35
ESCANABA       CLOUDY    41  34  75 S6        29.63F
MENOMINEE      CLOUDY    55  37  50 SW14      29.63F
SAWYER-GWINN   CLOUDY    40  33  77 S21       29.56F WCI  30
$$
MIZ001>003-009>011-084-020600-
WESTERN UPPER MICHIGAN

CITY           SKY/WX    TMP DP  RH WIND       PRES   REMARKS
IRON MOUNTAIN  CLOUDY    39  33  79 SE3       29.61F
HOUGHTON       CLOUDY    46  36  68 SW8       29.46F
COPPER HARBOR    N/A     40  33  76 SW12G20   29.47R WCI  33
IRONWOOD       CLOUDY    55  46  71 S21G31    29.43R
$$

ABBREVIATIONS USED IN REMARKS
   TC - TEMPERATURE IN CELSIUS
  WCI - WIND CHILL INDEX
   HX - HEAT INDEX
  VSB - VISIBILITY



USA.gov is the U.S. government's official web portal to all federal, state and local government web resources and services.